RH
4 4 4 4 4 4 4 4 4 4 4 4 3 3 3 3 2 3 2 2 2 2 2 2 2 2 2 1 2 2 1 1 1 2 2 2 4 4 5 5 5 7 7 8 9 11 12 13 14 13 12 12 12 12 11 11 10 9 8 6 7 6 8 12 17 27 36 37 28 25 27 28 28 22 24 27 22 15 10 9 4 12 21 20 38 53 50 46
5 5 4 4 4 4 4 4 5 4 4 4 4 3 3 3 3 3 3 2 2 2 2 2 2 2 2 2 2 1 1 2 1 2 4 4 6 6 7 9 8 10 10 11 13 14 15 15 15 14 13 13 13 13 12 12 11 9 8 7 7 6 12 21 22 27 35 38 32 28 28 30 32 28 27 28 23 16 12 8 3 14 24 28 55 70 59 54
6 6 5 5 4 4 4 5 5 5 4 4 4 4 3 3 3 3 3 3 2 3 2 2 2 2 2 2 2 2 2 1 2 9 10 7 8 9 10 12 13 14 14 15 16 17 18 18 16 15 15 14 14 14 13 13 12 11 9 7 8 8 18 27 26 29 36 41 37 31 31 31 35 34 28 26 28 28 17 11 8 9 16 28 59 75 64 58
6 6 6 5 5 5 5 5 5 5 4 4 4 4 4 4 3 3 3 3 3 2 2 2 2 2 2 2 2 2 1 2 7 16 17 12 15 15 14 16 16 18 19 19 19 20 20 19 18 17 16 15 15 14 14 14 12 12 10 8 9 11 22 30 34 38 40 46 42 34 34 32 33 33 25 20 27 31 17 15 22 16 13 21 41 54 52 54
6 6 5 5 5 4 5 5 5 5 5 5 4 4 4 4 4 4 3 3 3 3 3 2 2 2 2 2 2 2 2 5 12 23 25 20 20 20 20 21 22 22 22 23 23 23 23 21 21 19 18 17 17 15 15 15 14 13 10 11 11 12 26 32 33 37 40 47 44 36 35 32 33 32 25 17 17 21 12 11 25 28 25 27 34 42 43 49
6 6 5 5 4 4 4 4 4 5 5 5 5 5 4 4 4 4 4 3 3 3 2 2 3 2 2 2 2 2 3 6 16 29 30 25 27 28 27 26 26 27 27 27 26 26 25 23 22 21 20 19 18 17 17 17 15 14 11 13 12 14 31 37 29 30 35 45 47 38 33 34 33 28 25 21 15 16 10 7 24 41 43 39 39 46 54 58
6 5 5 5 4 4 4 4 4 4 5 5 5 5 5 4 4 4 4 4 3 3 3 3 2 2 2 2 2 3 4 6 18 31 27 27 33 33 32 31 30 31 30 29 28 27 26 25 24 22 22 21 20 19 19 20 17 15 13 14 15 14 30 40 31 25 27 36 41 36 31 34 31 22 22 21 19 16 6 7 28 51 54 44 43 49 57 58
6 6 5 5 4 4 4 4 4 4 5 5 5 5 5 5 5 4 4 4 4 3 3 3 2 3 2 2 3 2 6 13 23 31 26 25 30 32 36 35 32 32 30 30 28 28 27 26 25 24 24 22 22 21 20 21 17 16 13 14 16 15 27 39 31 23 22 20 22 26 25 29 29 23 23 21 26 20 4 8 19 36 52 54 57 59 58 56
7 6 5 5 4 4 4 4 4 4 5 5 5 5 5 5 5 5 4 4 4 3 3 3 3 3 2 2 3 2 8 17 24 28 25 24 27 33 40 39 36 34 31 30 28 29 27 26 26 24 24 23 23 22 21 20 18 17 15 15 17 15 23 35 32 24 26 25 18 18 19 25 28 24 23 24 36 29 6 13 17 23 45 55 61 64 65 63
8 7 6 5 4 4 4 4 4 4 5 5 5 5 5 5 5 5 5 4 4 4 3 3 3 3 3 2 3 4 8 15 20 23 22 26 31 33 38 40 40 38 35 33 29 28 28 26 26 25 24 24 23 22 21 20 19 18 17 17 17 17 19 29 35 27 28 36 25 11 11 21 23 18 17 19 34 32 7 8 16 22 40 49 53 58 59 54
9 8 7 6 4 4 4 4 4 4 5 5 5 6 5 5 6 5 5 5 4 4 4 4 3 3 3 3 4 5 7 11 17 21 23 29 32 29 34 39 40 41 40 37 32 28 28 27 26 25 24 23 22 22 21 20 19 18 18 16 17 18 17 21 31 28 24 28 20 8 8 14 15 12 13 14 22 25 11 5 7 13 31 42 43 45 47 46
12 9 7 6 5 4 4 4 4 5 5 5 6 6 6 5 6 5 6 5 5 5 4 4 4 4 4 5 5 5 8 9 15 23 23 30 36 30 30 37 40 43 43 41 36 30 27 27 26 25 24 23 23 22 21 21 19 19 18 16 17 17 17 16 20 23 20 17 12 10 11 11 12 12 12 14 17 19 14 8 5 6 14 21 23 26 34 40
15 11 8 6 5 4 4 4 4 5 5 5 6 6 6 6 6 6 6 6 5 5 5 5 5 4 4 7 6 5 9 10 14 21 19 27 42 39 33 35 39 43 43 43 41 33 28 27 26 25 25 24 22 21 21 20 19 19 18 17 18 15 15 15 15 17 17 15 12 12 12 11 13 13 12 14 15 17 17 10 6 6 6 8 8 11 18 29
16 12 9 7 6 5 4 4 4 5 5 6 6 6 6 6 6 6 6 6 6 6 7 6 5 5 6 8 8 6 9 13 15 18 18 22 33 40 40 37 37 42 44 44 43 38 30 26 26 25 24 23 22 21 20 20 19 18 18 17 17 15 14 15 16 17 16 16 15 14 13 13 13 13 14 15 15 16 19 14 8 6 7 7 8 12 17 21
16 13 10 8 6 5 4 5 5 4 5 6 6 7 7 7 6 6 6 6 7 8 8 7 6 6 7 9 9 8 9 12 14 15 20 23 26 37 44 41 38 40 44 45 44 41 33 28 26 25 24 22 21 20 19 19 19 17 18 17 16 15 14 14 15 15 17 16 15 15 14 14 13 14 15 15 16 15 16 17 11 7 7 7 9 14 18 19
17 13 11 9 7 6 5 5 5 5 5 6 6 8 8 7 7 6 7 7 7 9 9 8 9 8 8 11 11 10 8 11 14 14 19 26 31 40 48 50 44 40 43 46 45 42 38 32 27 25 23 20 19 18 17 17 16 16 16 15 15 15 14 15 14 13 15 15 15 15 14 15 13 15 18 16 17 17 20 27 18 8 7 8 9 11 19 26
19 15 12 10 9 8 7 6 6 5 5 6 7 8 8 8 7 7 7 7 7 9 10 9 11 11 11 15 13 11 12 14 16 15 18 27 34 43 51 56 54 47 45 46 46 43 40 35 29 26 22 19 18 15 16 16 15 15 14 15 15 14 13 12 13 12 12 12 13 13 13 15 13 18 27 26 26 25 26 37 28 11 8 9 10 11 18 29
21 18 14 12 10 9 8 7 7 7 7 7 7 8 9 8 8 7 7 7 8 9 10 9 12 15 18 21 19 15 16 16 18 20 23 29 34 41 49 54 57 54 48 46 46 43 41 37 32 27 22 20 17 15 17 14 13 14 14 21 20 14 14 13 12 13 13 14 15 16 16 15 14 22 31 31 36 37 37 47 36 16 14 14 14 12 12 23
20 19 16 13 11 10 10 9 8 8 8 7 8 9 9 8 8 8 7 8 8 9 10 10 12 19 24 26 25 23 22 20 22 27 30 31 35 41 48 52 54 54 50 47 46 43 41 37 33 29 23 20 16 16 16 10 20 26 19 28 35 24 16 13 14 17 24 27 23 25 28 26 22 22 31 37 41 46 47 47 36 24 24 21 18 18 16 24
19 18 16 14 11 11 10 10 10 9 9 9 9 10 9 9 8 8 8 8 10 9 9 9 12 20 25 27 30 30 30 26 25 31 34 35 39 43 48 52 52 51 48 47 45 42 40 37 34 28 22 19 16 16 15 11 29 38 23 33 54 49 28 17 23 31 37 40 33 31 35 37 32 25 33 40 39 43 43 38 36 33 33 31 32 31 25 24
22 20 18 15 12 10 10 10 10 9 10 9 9 10 10 9 8 8 8 8 10 10 9 9 10 20 28 31 35 35 33 30 30 35 36 38 44 44 46 50 50 48 47 46 44 40 39 36 30 24 18 17 16 16 14 13 25 31 18 25 55 63 39 22 32 44 44 42 37 34 37 43 41 32 30 31 31 40 41 36 36 33 34 40 42 32 18 18
24 25 24 21 16 12 10 10 9 8 9 10 10 11 10 8 7 8 8 8 11 10 10 11 9 17 30 33 34 35 34 32 36 42 38 37 45 47 45 48 47 45 44 43 42 39 38 32 23 19 17 16 17 15 14 15 21 23 13 19 48 61 44 33 42 49 45 40 37 40 48 53 49 39 31 28 32 40 42 42 41 42 46 43 31 19 15 20
22 23 26 29 28 21 15 11 10 9 8 9 10 10 10 9 8 8 8 8 11 11 11 12 10 14 25 33 35 34 35 35 37 44 42 39 46 48 46 46 44 42 41 40 39 37 32 25 18 17 18 17 17 15 14 14 15 17 13 25 52 57 53 62 60 50 45 42 42 48 57 60 51 41 36 31 31 38 43 45 50 56 56 44 28 21 27 34
21 21 21 25 29 28 23 15 11 10 9 9 9 10 10 10 8 7 8 8 10 12 12 12 12 12 21 31 32 29 34 38 39 42 44 46 49 47 46 45 41 39 38 36 34 30 23 20 18 18 19 18 17 16 15 14 13 15 16 33 59 55 56 77 73 59 57 54 55 55 57 61 47 38 44 36 27 38 49 49 50 48 41 41 43 38 39 47
25 23 22 21 22 25 26 22 17 12 10 9 8 10 10 10 10 8 8 8 9 12 12 11 12 14 19 24 24 26 33 38 41 42 42 46 50 47 44 42 39 35 32 30 27 22 19 20 19 19 21 19 18 17 16 15 14 14 17 36 61 57 51 67 67 64 71 66 63 60 56 58 48 42 50 43 32 42 54 54 44 32 32 43 51 50 50 57
32 30 28 26 25 25 26 30 26 17 13 11 10 10 9 9 10 8 8 9 9 11 13 13 12 14 19 22 21 26 32 37 42 43 40 42 46 48 44 39 36 31 27 24 21 19 18 20 20 23 30 27 19 17 16 17 15 13 17 32 57 59 50 62 65 64 79 82 74 67 55 49 49 48 46 43 42 45 50 49 33 20 28 41 48 51 49 49
40 39 37 34 34 35 35 38 35 24 19 20 19 14 9 8 8 8 8 7 10 14 12 12 13 15 22 26 25 26 31 36 40 41 40 41 42 44 44 38 33 28 24 22 20 20 21 23 23 25 33 31 21 19 19 18 15 13 16 23 43 52 50 64 70 66 84 94 84 74 60 48 49 46 40 52 61 58 58 50 29 18 22 33 44 45 41 45
46 45 44 41 42 43 42 43 43 34 28 31 31 23 16 13 8 8 8 7 17 22 17 17 17 15 20 25 26 30 33 33 37 40 41 40 39 40 42 37 30 24 22 22 21 23 27 29 25 23 27 25 21 23 25 21 17 14 14 14 25 39 47 62 71 69 76 81 76 70 59 52 54 44 39 65 81 78 77 60 40 41 42 41 46 44 44 49
49 48 46 45 46 47 46 46 47 41 37 40 39 33 28 22 15 13 9 8 21 27 24 29 30 26 25 25 27 34 34 32 36 41 42 40 38 38 37 32 26 21 20 22 23 29 39 39 35 33 29 23 24 28 28 23 19 16 12 12 13 17 31 51 69 77 71 62 64 72 70 62 59 51 49 70 86 82 79 66 53 61 64 58 55 54 54 50
40 39 39 40 39 40 41 41 43 42 42 43 43 40 35 32 27 20 13 11 20 25 23 27 32 36 36 32 35 40 37 34 39 41 40 41 41 38 35 28 23 22 23 23 22 28 42 46 49 50 34 24 28 29 26 24 21 17 14 17 15 11 21 36 53 73 73 62 61 72 82 72 59 59 61 67 76 75 71 64 59 68 75 70 62 55 53 53
19 17 18 20 19 20 22 22 25 30 36 39 41 41 38 39 35 25 20 19 25 31 29 28 32 36 40 40 47 52 42 37 42 43 37 38 42 39 35 31 26 25 23 23 24 29 41 44 47 49 32 23 28 27 26 25 21 20 16 16 23 34 42 39 38 47 51 59 61 61 75 74 61 69 75 70 72 73 67 61 61 73 82 78 70 63 54 52
6 5 5 6 5 6 7 7 8 12 17 21 29 35 36 39 33 27 29 29 37 47 45 50 52 42 39 40 46 54 49 43 45 46 39 35 42 43 38 34 29 26 24 24 26 30 38 38 34 36 32 27 29 26 26 26 22 26 27 19 25 48 62 60 53 37 26 42 51 48 66 71 59 68 84 84 79 73 67 60 61 70 76 80 88 85 67 52
4 4 4 4 3 4 3 4 4 4 5 7 12 18 24 33 32 33 38 36 52 64 57 65 75 66 57 50 47 48 44 41 44 52 50 38 41 46 43 37 30 27 28 29 32 31 35 36 29 28 29 29 32 28 26 27 25 31 36 30 30 42 55 69 74 54 40 50 47 47 72 75 56 61 83 91 82 73 70 63 64 71 74 80 88 83 70 59
5 4 4 4 4 4 3 4 3 3 3 3 4 5 11 20 23 27 34 38 57 72 66 70 83 89 91 84 77 65 48 43 46 56 61 52 51 54 48 43 36 32 30 30 35 35 34 37 34 30 27 28 31 29 27 31 39 50 53 46 44 48 55 70 84 76 69 71 59 58 78 75 66 73 82 81 70 66 70 71 78 86 84 84 80 71 64 58
5 5 5 5 4 4 4 4 4 4 4 3 3 3 3 8 9 11 18 26 46 68 80 84 86 94 100 97 96 85 69 67 65 62 63 58 60 63 55 48 41 37 36 33 35 36 32 33 38 40 35 30 31 32 31 34 51 71 74 61 52 55 67 78 89 89 84 82 74 73 78 71 72 81 78 70 66 69 73 72 75 78 79 82 76 67 64 56
6 5 5 5 4 4 4 4 4 3 4 4 3 3 2 3 3 3 6 12 31 57 79 90 92 93 93 91 95 92 86 88 87 88 82 62 58 67 68 63 53 41 37 34 38 43 38 34 40 50 50 40 33 33 34 36 50 65 70 69 58 52 69 85 91 91 88 88 85 83 79 70 68 71 67 64 66 71 75 72 68 64 68 74 68 65 71 67
5 4 5 4 4 5 4 4 5 4 4 4 3 4 3 3 3 3 3 5 18 43 63 77 89 94 93 93 94 93 95 94 91 98 99 80 70 75 79 80 75 62 51 41 41 47 46 40 44 58 69 64 51 42 37 37 45 56 68 79 68 50 59 76 82 85 85 84 84 84 83 80 76 69 65 68 68 69 74 74 68 64 64 67 64 61 66 69
5 5 5 5 5 5 6 7 7 6 6 4 3 4 3 3 4 4 4 1 7 32 51 62 80 95 99 100 97 94 97 98 94 96 97 90 87 86 85 87 86 85 80 62 49 51 53 48 44 50 68 83 76 59 47 40 38 50 74 89 80 66 65 67 68 73 79 79 78 85 90 88 79 64 57 66 72 70 69 63 59 61 63 62 59 52 49 58
7 8 8 8 6 5 6 7 7 8 8 6 5 5 5 6 4 2 5 4 3 17 39 55 75 92 98 99 100 100 99 98 99 99 94 88 88 88 88 89 88 90 91 79 64 57 56 59 55 49 59 80 86 75 66 62 50 49 72 89 88 87 84 79 76 77 84 84 80 87 89 79 69 57 50 59 68 68 65 64 64 66 66 61 56 52 47 50
10 10 10 8 6 6 6 6 7 8 10 10 8 7 7 8 7 5 4 5 3 8 29 61 85 95 98 99 98 99 101 102 101 98 94 91 90 85 81 84 88 88 88 84 75 64 55 56 62 61 59 69 86 90 86 89 83 71 74 80 85 94 94 90 90 86 86 84 84 91 85 72 67 62 57 62 67 67 65 70 73 69 66 63 60 58 52 47
12 11 8 6 7 11 11 9 10 11 10 12 11 11 12 11 10 10 6 5 8 7 20 61 96 101 96 95 93 93 98 102 99 96 97 96 92 89 86 86 89 88 90 91 85 77 68 58 57 64 64 69 86 93 87 91 93 84 78 75 82 94 94 92 92 86 80 79 87 94 84 70 64 59 63 67 62 64 69 68 64 59 60 61 59 54 48 42
13 9 7 11 15 21 24 22 24 24 23 26 24 17 16 14 9 10 12 7 2 7 30 67 92 94 93 95 94 93 96 99 98 94 94 91 86 91 95 94 90 87 93 100 94 87 82 70 63 66 69 78 92 91 84 87 87 79 74 70 76 85 86 88 90 86 83 84 88 89 77 65 55 52 70 78 62 65 76 69 60 57 55 57 59 58 53 46
12 7 10 20 28 35 40 40 42 41 41 50 53 42 35 33 23 12 10 11 17 39 69 86 86 83 94 103 97 93 96 99 99 93 89 89 90 94 96 92 91 90 92 98 96 89 82 75 76 77 70 76 91 90 82 85 89 85 78 71 74 83 83 79 77 79 87 91 92 89 74 58 50 50 70 82 70 66 69 63 60 60 56 54 56 56 52 44
10 6 13 26 34 39 44 46 48 46 44 49 57 59 54 55 60 48 31 37 59 73 76 80 79 76 89 102 98 96 99 98 98 95 90 93 97 100 98 90 88 87 82 83 89 92 87 79 81 86 77 71 81 86 82 83 89 91 88 83 81 87 89 78 65 69 83 89 88 88 74 56 51 53 59 66 63 57 54 54 57 63 64 60 59 60 61 58
10 6 12 24 31 34 41 47 46 44 47 44 41 51 55 56 74 79 57 46 53 53 52 66 67 58 78 104 99 94 101 99 98 96 92 95 97 98 101 95 87 83 79 79 82 88 92 87 84 88 88 81 80 85 89 90 90 88 88 88 82 81 93 94 81 79 85 83 76 76 70 58 55 59 59 58 56 54 56 62 68 80 86 81 76 79 81 83
11 6 10 23 31 33 41 51 47 38 46 49 36 38 47 53 73 89 77 57 40 27 32 50 48 38 66 101 97 90 98 101 101 97 92 95 95 93 96 96 90 87 87 87 82 79 86 92 92 92 95 93 84 80 86 89 87 87 89 91 84 75 80 90 93 92 86 77 68 64 64 60 60 65 66 65 66 68 71 72 71 76 82 80 79 80 78 76
11 7 10 22 32 37 45 57 55 39 46 66 62 51 53 57 70 89 95 86 72 55 41 38 39 40 58 82 89 92 97 98 100 99 94 92 91 92 93 87 82 81 80 81 80 81 86 92 97 97 96 96 85 74 81 87 85 88 94 98 96 86 79 80 88 90 83 79 75 66 62 63 65 66 66 68 72 74 73 71 69 71 73 73 76 79 78 71
13 8 9 18 30 39 46 56 61 51 53 72 77 76 81 78 73 86 100 95 87 82 65 47 47 54 57 63 74 87 96 99 95 89 86 83 83 94 99 88 84 83 77 75 80 84 85 87 95 97 93 95 85 72 80 94 94 95 98 99 97 91 87 85 84 81 78 83 87 79 73 73 71 67 64 62 66 71 71 68 70 73 69 66 69 73 77 75
15 9 8 15 26 37 37 42 62 69 62 60 62 68 83 90 84 86 95 95 88 85 76 63 57 57 57 56 57 64 79 92 90 82 79 77 76 88 98 94 90 86 79 81 87 86 82 84 92 96 95 96 85 70 76 92 96 94 96 99 98 95 95 94 92 88 84 87 89 83 82 83 77 73 71 70 73 79 79 75 75 77 72 69 72 71 72 77
18 13 9 9 18 34 37 36 54 73 70 62 60 59 60 69 79 82 85 90 89 81 75 70 63 56 56 61 61 60 65 75 81 78 76 76 74 83 94 94 90 87 85 85 87 86 85 84 86 88 88 90 86 78 76 83 87 90 92 94 95 97 97 95 95 93 89 90 88 81 81 84 81 80 84 86 87 87 84 80 83 87 82 77 81 79 75 79
19 17 13 8 8 23 37 38 44 64 75 64 51 53 57 58 67 79 85 86 82 76 75 75 68 58 55 58 62 67 72 73 72 71 72 72 71 74 81 81 80 84 88 86 82 83 84 82 81 83 85 84 85 84 82 84 87 90 91 89 88 91 93 92 93 94 89 86 83 80 80 79 75 75 79 81 81 80 80 80 83 88 83 76 81 85 83 85
21 20 16 12 8 11 25 38 41 52 68 56 31 30 47 57 62 70 76 74 70 74 81 80 72 68 70 72 65 61 66 71 71 74 77 76 71 65 62 59 61 69 75 78 84 90 91 87 84 86 88 84 80 82 85 87 86 82 81 80 79 80 81 82 87 91 89 84 82 80 78 75 74 75 76 79 80 76 74 72 73 80 80 76 81 85 84 88
Wind_Speed
31 31 31 31 31 31 31 31 30 30 30 30 30 30 30 30 30 29 29 28 28 28 28 28 29 29 30 31 32 32 33 33 32 31 31 30 28 27 27 27 26 25 24 24 24 25 26 27 28 29 30 30 29 29 28 28 29 30 30 30 27 24 18 14 17 18 11 7 17 22 26 30 34 36 36 35 30 25 25 26 26 23 21 18 15 18 20 20
31 31 31 31 31 31 31 31 30 30 30 30 30 30 29 29 29 29 29 28 28 28 28 28 28 29 30 30 31 32 32 32 32 30 28 27 26 27 25 24 24 23 22 23 23 24 25 26 28 29 29 29 29 29 29 28 29 29 29 28 25 21 14 18 24 20 13 10 20 27 30 30 32 36 36 35 33 27 24 24 23 22 20 16 15 18 21 21
31 31 31 31 31 31 31 31 30 30 30 30 29 29 29 29 29 29 28 28 28 28 28 28 28 29 29 30 30 31 31 31 30 26 25 26 25 25 23 22 21 21 21 22 22 23 24 26 27 28 28 29 29 29 29 29 29 29 29 27 23 17 18 26 25 19 12 11 21 31 35 33 33 34 33 33 34 27 20 20 21 23 22 19 18 21 22 22
32 32 32 32 32 31 31 31 30 30 30 29 29 29 28 28 28 28 28 28 28 28 28 27 28 28 28 29 30 30 31 30 27 23 24 25 24 22 22 21 20 20 21 21 21 23 24 25 26 27 28 28 29 29 29 29 29 29 28 26 20 16 26 30 22 19 12 14 24 32 36 39 38 34 32 32 30 26 21 18 19 23 23 22 22 23 24 24
32 32 32 32 32 32 31 31 30 30 30 29 29 28 28 28 28 28 28 28 28 27 27 27 28 28 28 29 29 30 30 29 25 21 22 23 22 21 20 19 19 20 20 20 21 22 23 25 26 27 27 28 28 29 29 28 28 29 28 25 20 19 29 32 24 24 19 18 29 35 36 41 41 33 30 28 24 23 22 20 20 22 22 22 23 23 24 24
33 33 33 33 32 32 32 31 31 30 30 29 29 28 28 27 27 27 27 27 27 27 27 27 27 27 28 28 28 29 29 28 25 20 20 21 21 20 19 18 19 20 20 21 21 22 23 24 25 26 27 27 28 28 28 28 29 29 28 26 23 22 30 33 30 29 25 23 30 37 40 42 41 36 30 24 22 23 21 21 23 21 21 23 23 22 21 22
33 34 33 33 33 32 32 32 31 30 30 29 28 28 27 27 27 27 27 27 27 27 27 27 27 27 27 27 27 28 28 29 25 20 20 20 21 21 19 18 18 20 21 21 22 22 23 24 25 26 26 27 27 28 28 28 30 30 29 27 24 25 32 33 32 31 30 32 34 39 43 42 40 37 32 23 22 25 23 23 25 21 20 22 22 22 21 21
34 34 34 34 34 33 33 32 31 31 30 29 28 28 27 27 26 26 27 27 27 27 26 26 26 26 26 26 26 27 28 28 25 22 21 20 21 21 20 19 18 19 21 21 22 22 23 24 24 25 26 26 27 28 28 29 31 30 29 28 24 27 34 34 34 34 33 35 36 38 40 39 39 37 33 26 22 26 26 25 26 23 20 21 20 20 21 21
34 34 35 35 35 34 34 33 32 31 30 29 28 27 27 27 26 26 26 26 26 26 26 25 25 25 26 26 26 26 27 27 25 24 22 21 21 21 21 21 20 19 20 21 22 23 23 23 24 25 25 26 27 28 29 30 30 30 29 27 26 28 34 37 37 36 32 31 34 36 34 31 34 35 32 29 27 27 26 25 25 22 23 24 21 20 21 21
34 35 35 36 36 35 35 34 33 32 31 30 29 27 27 26 26 26 26 26 26 25 25 25 25 24 25 25 25 26 27 27 26 23 22 22 21 21 22 22 21 21 21 21 23 23 23 24 24 25 26 27 28 29 30 30 30 29 30 30 28 28 33 37 38 37 33 31 36 33 25 22 28 30 26 25 28 28 27 26 24 21 23 25 24 23 23 22
34 35 36 36 36 36 36 35 34 33 32 30 29 28 27 26 26 26 26 25 25 25 24 24 24 23 24 24 23 25 27 27 25 21 21 22 22 22 22 22 22 23 23 22 22 23 24 25 25 26 26 27 27 28 29 30 30 30 33 32 29 30 32 37 40 41 39 38 39 30 20 21 26 27 23 23 25 25 27 28 26 24 23 24 25 25 24 24
35 35 36 36 37 37 36 35 34 33 32 31 30 28 27 26 26 25 25 25 24 24 23 23 23 22 23 22 23 25 26 26 24 22 22 21 21 22 22 23 23 23 24 23 22 22 24 25 26 26 26 26 27 29 28 28 29 30 33 31 29 31 34 37 40 41 41 41 39 31 25 25 26 25 23 23 23 22 27 30 26 25 24 24 26 27 25 25
35 35 36 36 37 37 37 36 35 34 33 31 30 29 28 26 25 25 25 24 24 23 22 22 22 22 21 20 22 24 25 26 25 24 22 20 21 22 21 22 23 23 23 24 23 23 24 25 26 26 26 27 28 28 28 29 31 31 31 29 29 32 34 35 36 37 39 40 38 33 29 27 24 22 20 20 23 22 26 33 28 23 23 23 24 27 27 26
35 35 36 36 36 36 36 36 36 35 34 32 31 30 28 27 26 25 25 24 23 23 22 21 21 21 19 19 21 22 24 26 26 25 23 20 21 22 21 22 23 23 23 24 25 24 23 24 25 25 26 27 27 26 27 30 31 30 30 30 30 31 30 29 32 34 36 37 36 32 29 28 23 20 18 18 21 21 25 34 29 22 23 22 21 24 26 26
35 36 36 36 36 36 36 36 36 35 34 33 32 30 29 27 27 26 25 24 23 22 22 20 20 19 18 18 20 21 23 26 25 25 23 22 20 20 21 22 22 24 23 24 25 25 23 24 25 25 25 26 26 26 27 28 28 28 28 29 29 29 27 26 28 31 33 34 33 30 28 28 23 18 17 17 19 20 22 30 28 23 25 23 18 20 25 25
35 36 36 36 37 36 36 36 36 36 35 34 33 31 29 28 28 27 25 24 24 23 21 20 19 18 17 16 18 21 22 23 24 24 24 22 20 20 21 21 22 23 24 24 25 25 24 24 25 24 25 25 25 25 26 26 27 27 27 26 26 26 27 25 25 28 30 31 31 29 28 29 24 15 14 16 18 19 18 24 26 24 26 24 18 19 23 23
35 36 36 36 37 37 37 36 36 35 35 34 33 32 30 29 29 28 26 25 24 22 21 20 18 17 17 14 16 19 20 21 22 23 23 23 22 22 22 21 22 23 24 24 24 25 25 25 24 24 25 25 24 25 26 26 24 23 22 20 20 21 23 23 23 25 26 27 28 27 27 30 23 12 13 16 17 17 17 22 25 24 26 27 24 20 20 21
35 35 36 36 36 36 36 36 36 35 35 34 33 32 31 30 30 29 27 26 24 22 21 21 18 17 16 14 14 17 19 20 20 21 23 23 23 23 22 22 22 23 24 24 24 25 26 25 25 25 25 24 24 24 25 22 16 15 16 15 15 16 18 18 18 20 21 21 21 22 24 27 20 14 18 18 16 17 20 25 26 22 24 28 28 23 20 22
34 34 35 36 36 36 36 36 36 36 35 35 33 32 32 32 31 30 28 26 24 22 22 21 17 17 17 15 15 16 17 18 18 20 23 23 24 23 23 22 22 23 23 23 23 24 25 26 25 25 24 23 23 22 21 16 11 13 16 15 14 15 14 11 12 15 14 14 13 13 19 20 14 16 21 19 18 21 26 28 23 18 21 26 26 22 20 23
32 33 33 34 34 35 35 35 35 35 35 35 33 32 32 32 32 31 29 26 25 24 23 21 17 16 17 16 15 16 16 17 18 20 21 22 23 23 22 21 22 22 22 22 22 24 25 25 24 23 22 21 21 20 17 13 14 18 20 18 16 14 10 9 12 10 8 14 13 12 18 19 13 14 23 23 19 19 24 27 23 19 21 22 25 24 21 26
31 32 32 32 32 32 33 33 34 35 35 34 34 32 32 33 33 32 30 27 26 25 23 21 19 16 17 17 16 16 17 15 16 18 21 22 21 22 21 21 21 21 21 22 23 24 23 23 22 20 20 20 20 19 16 15 20 23 22 22 18 10 7 15 14 4 8 17 18 16 19 19 18 15 21 27 23 19 21 25 27 25 24 26 31 30 25 26
30 31 31 30 29 29 29 29 30 32 33 33 33 32 32 33 34 32 31 28 26 26 23 22 20 17 17 19 18 18 17 13 14 17 20 21 19 20 21 20 20 20 21 23 22 23 21 20 18 18 19 19 18 19 17 18 23 23 21 20 16 12 12 12 6 7 13 18 18 17 17 18 21 19 19 27 25 23 25 27 29 29 29 34 36 31 28 29
29 29 29 29 28 27 26 26 27 28 30 32 33 33 32 33 34 33 33 29 25 25 25 23 22 20 18 18 19 19 17 14 14 16 20 19 18 21 21 19 19 20 22 22 21 21 19 18 18 18 18 18 18 19 18 19 22 20 18 18 18 21 17 8 4 7 13 18 20 21 19 19 24 20 19 28 28 28 30 30 31 32 34 39 40 37 38 37
28 28 27 27 27 26 24 24 24 25 27 29 31 32 32 32 33 33 32 31 26 23 25 24 21 20 18 18 21 20 17 16 15 17 19 18 18 22 21 18 19 20 21 20 20 19 17 18 19 18 17 17 18 18 18 19 18 15 16 19 22 25 21 12 13 15 16 19 21 25 25 25 28 22 19 25 27 28 30 32 35 36 37 40 42 42 40 36
26 26 26 25 25 24 23 22 22 24 25 27 28 29 30 30 31 32 31 33 27 20 24 25 19 18 19 20 21 18 17 17 16 18 19 17 19 21 19 18 19 19 19 19 20 18 18 19 19 18 17 17 19 19 17 16 15 14 16 21 23 25 24 18 17 21 19 22 25 29 31 31 32 28 26 28 26 28 32 35 36 33 32 34 36 35 32 31
26 26 25 25 25 24 23 21 22 24 24 24 24 23 26 26 28 30 30 33 28 20 23 26 20 18 18 20 22 19 19 16 16 20 18 16 19 20 18 18 18 19 19 19 20 19 18 18 18 18 17 19 21 20 16 14 15 16 17 23 25 25 27 22 18 20 18 18 24 28 28 29 28 27 29 29 27 30 35 37 38 33 30 31 32 29 28 30
26 26 26 25 24 24 24 22 22 24 23 22 20 21 24 24 25 27 29 31 28 21 23 24 20 17 17 19 18 16 17 16 18 21 17 15 18 19 18 18 18 20 20 20 21 20 17 17 18 18 19 21 20 15 13 14 16 16 16 23 27 26 29 26 21 21 19 18 25 27 26 24 23 22 22 24 26 31 35 38 39 36 33 34 35 32 29 30
26 26 26 26 24 24 25 24 23 24 24 22 20 22 24 23 22 24 26 28 26 23 22 21 18 16 18 20 15 11 15 17 17 17 17 16 17 18 18 17 18 20 20 21 21 18 16 16 18 19 20 20 17 12 12 15 15 14 17 23 27 27 30 29 25 23 23 22 24 26 26 23 20 18 19 23 27 30 33 35 35 35 35 37 38 33 29 28
25 25 25 25 24 23 24 24 24 24 24 23 22 23 23 23 22 22 25 25 22 19 19 19 18 17 20 23 17 13 16 16 14 16 18 17 18 19 17 16 18 20 21 22 20 18 16 16 18 19 20 19 15 12 14 16 14 15 18 21 25 28 30 31 28 25 23 22 20 18 20 21 19 17 19 24 28 31 34 34 31 30 31 32 33 29 26 25
21 22 23 23 22 22 23 22 22 24 24 24 24 24 24 23 22 24 25 23 18 16 19 19 17 16 19 22 18 16 18 16 14 18 20 17 18 19 17 18 20 20 22 23 22 20 17 17 19 20 21 18 15 14 15 16 15 16 19 18 21 25 26 29 30 28 27 26 21 16 16 18 17 17 20 24 26 30 33 31 27 25 22 22 24 23 22 22
19 20 20 22 21 20 21 21 21 23 23 24 25 25 26 24 25 26 23 20 16 14 16 18 16 17 19 19 16 15 18 17 16 20 21 17 18 20 19 20 22 22 23 24 23 21 19 21 21 21 21 16 14 15 16 16 16 17 19 19 21 22 21 23 27 30 31 29 24 18 16 18 17 17 21 24 25 29 30 27 23 21 18 17 19 20 20 21
17 18 19 20 21 20 20 20 21 22 22 23 24 25 26 26 28 27 22 19 15 10 11 13 14 18 20 19 18 16 16 17 17 21 22 18 16 18 19 20 21 22 23 23 23 21 22 24 22 19 18 13 13 17 17 17 17 18 20 21 21 21 19 18 21 27 29 28 24 18 15 19 20 20 24 25 25 27 27 24 22 21 17 15 17 19 19 21
16 17 17 18 19 20 20 19 20 22 22 23 24 24 26 27 28 25 22 20 15 12 14 11 8 13 17 19 20 18 17 18 18 20 22 20 17 17 19 19 21 22 21 22 22 21 20 23 22 20 17 14 15 18 17 17 18 18 20 20 20 20 21 19 19 23 25 24 21 16 15 20 21 23 26 26 25 25 24 22 22 21 17 15 17 17 17 19
15 16 16 17 19 19 20 19 19 20 22 23 24 25 26 27 25 22 21 19 15 16 17 13 10 11 14 16 17 17 18 18 18 20 22 22 19 18 19 20 21 22 21 23 24 22 22 23 22 21 19 16 15 17 15 15 17 17 17 17 19 20 21 21 20 20 22 22 19 16 17 22 22 23 26 26 25 26 25 24 23 21 19 19 19 18 18 18
16 17 17 18 19 20 21 21 20 21 22 23 24 26 26 25 22 20 20 18 16 19 19 17 16 14 13 16 15 16 17 17 18 21 24 24 20 19 19 19 21 22 23 24 25 25 26 25 23 21 20 18 16 15 14 14 17 18 17 17 19 21 20 20 20 20 21 21 19 17 21 24 24 24 25 25 25 25 26 26 26 25 22 21 20 20 20 19
17 18 18 19 19 20 21 22 22 22 23 24 25 25 24 22 22 21 20 18 18 23 25 23 21 17 15 18 17 15 18 20 20 21 25 26 22 20 19 18 20 23 23 24 24 25 26 26 23 20 21 21 21 18 16 17 19 20 19 17 17 20 21 21 21 21 21 21 20 21 24 26 25 25 24 23 24 24 24 25 25 25 24 22 21 19 18 18
17 17 17 18 18 20 21 21 21 22 23 25 26 25 23 22 21 21 21 20 20 24 29 28 24 18 15 17 18 17 18 20 23 24 25 25 24 22 21 20 21 23 24 23 24 25 26 26 24 21 21 22 22 21 20 20 21 20 20 17 17 20 23 23 24 23 23 23 22 22 24 24 24 25 23 21 22 24 24 23 23 22 22 21 20 19 19 19
16 16 17 18 18 19 20 21 22 23 23 24 25 24 23 23 21 21 21 21 22 25 30 32 27 21 16 16 18 18 18 19 21 22 24 26 27 26 24 23 23 25 25 25 26 27 28 27 26 25 24 21 20 21 22 23 24 23 21 20 21 23 24 24 25 24 23 24 24 23 23 24 25 27 26 23 22 22 22 22 21 21 21 20 20 20 20 20
15 17 19 20 21 21 21 22 23 24 24 24 23 23 23 24 23 22 22 22 23 26 30 33 30 25 22 21 19 19 19 19 20 22 23 26 29 29 27 26 26 26 27 27 28 30 30 29 29 29 26 24 22 20 20 21 24 25 23 23 25 26 26 25 25 24 22 22 22 23 26 28 27 28 28 25 23 21 19 18 18 19 19 20 20 20 20 20
16 18 21 22 23 24 24 24 25 26 26 25 25 24 24 24 24 24 23 23 24 26 30 32 29 26 26 25 22 19 19 19 20 23 26 28 29 29 28 29 29 29 29 29 30 31 32 31 31 30 28 27 24 21 22 23 24 25 27 26 26 26 27 27 27 26 25 23 22 22 27 29 28 28 27 25 24 20 18 17 17 17 18 19 19 19 19 20
17 19 22 23 22 22 23 24 24 26 27 28 27 26 25 25 25 24 25 25 26 27 30 31 30 28 29 30 24 20 19 16 17 22 26 29 29 30 29 29 30 31 31 33 33 32 32 31 30 31 31 30 26 22 23 27 28 28 30 30 28 25 26 29 30 30 29 28 25 21 22 25 26 26 24 25 25 22 19 20 20 19 19 20 22 22 23 23
19 20 21 21 20 19 20 21 20 21 22 24 26 27 27 27 27 26 25 26 27 26 27 31 34 33 32 32 26 21 20 15 16 24 27 28 28 29 30 29 30 32 33 34 36 34 32 30 29 31 32 31 31 29 27 29 30 32 32 32 30 27 27 29 30 30 29 30 29 25 23 25 26 26 24 23 24 23 21 21 22 22 21 21 22 23 23 23
19 20 18 17 18 19 20 20 19 19 18 18 20 23 24 26 26 26 25 24 23 24 25 31 36 35 32 32 27 24 24 18 20 27 29 28 27 27 28 29 31 33 33 34 36 35 32 31 30 32 32 33 35 36 33 30 31 33 33 32 31 29 28 28 29 29 27 27 29 27 26 27 28 28 25 21 21 22 22 23 24 24 24 23 22 22 23 24
20 20 17 15 16 19 20 20 19 19 17 16 18 20 22 23 22 20 21 24 24 27 30 33 37 36 34 33 30 27 26 22 19 25 28 27 26 25 25 27 29 32 33 33 35 35 34 34 34 34 34 36 36 37 37 34 32 33 33 32 31 30 29 28 29 30 27 25 26 25 26 28 28 29 30 28 26 24 24 26 27 26 26 26 24 22 23 23
19 20 17 15 16 18 21 21 19 17 16 16 16 20 22 22 21 19 22 28 31 34 35 35 37 37 34 35 35 31 27 23 17 18 23 24 22 21 21 24 27 29 31 32 32 32 31 33 36 34 32 33 34 35 37 36 34 34 35 35 35 33 30 28 29 31 31 29 28 26 26 28 29 29 30 32 31 28 26 26 25 22 20 20 20 19 17 18
19 20 18 15 15 18 21 21 19 17 13 12 11 14 18 19 20 20 21 26 30 33 35 36 38 37 34 35 38 35 29 25 20 16 20 22 20 18 19 19 21 23 25 27 29 29 28 31 38 36 29 28 31 33 34 34 35 36 35 36 38 37 34 32 30 31 33 33 32 31 29 29 31 30 28 28 29 28 26 26 26 24 21 21 21 18 16 17
18 19 17 13 14 17 20 20 19 16 10 6 5 6 12 17 19 20 19 21 24 26 30 35 35 34 34 35 38 36 31 27 23 20 22 23 20 18 20 20 19 20 21 22 24 27 26 29 34 34 27 24 28 30 32 32 33 35 35 34 36 37 36 35 33 31 32 34 34 34 34 33 33 32 29 27 27 27 27 26 26 26 25 24 23 19 18 19
18 19 16 12 11 14 17 19 17 12 8 6 4 4 7 12 17 21 19 18 18 19 23 29 32 33 34 35 36 37 35 31 29 27 28 27 23 18 19 21 20 19 20 22 23 26 27 27 29 28 25 25 27 30 30 29 31 34 35 34 34 35 36 37 37 35 34 32 30 30 32 33 34 34 33 32 31 30 29 27 26 25 24 24 23 21 21 20
17 18 17 13 10 12 15 18 17 10 7 7 5 4 6 9 13 18 19 17 17 17 18 24 29 30 31 32 32 34 35 35 34 33 31 30 27 20 18 21 20 18 20 21 21 23 25 26 25 24 24 26 30 32 29 27 29 32 33 34 34 35 36 37 39 39 37 35 31 30 30 31 32 33 33 32 31 30 28 27 27 25 23 23 23 23 24 22
16 17 18 14 11 10 12 16 17 11 6 5 5 3 6 9 11 13 15 16 16 17 18 21 25 26 26 26 27 29 31 33 36 36 33 31 29 24 19 20 20 18 19 20 20 20 21 22 22 22 22 24 27 31 31 28 28 30 32 32 32 33 33 33 36 39 39 37 36 34 33 33 32 31 30 29 29 28 26 24 22 19 18 19 20 21 23 22
15 16 17 17 14 10 9 12 16 13 6 4 4 3 5 8 11 12 12 12 13 14 16 18 21 23 23 23 25 26 26 27 30 33 33 32 31 29 25 24 24 22 20 18 18 19 20 22 23 22 22 22 23 24 26 26 27 28 29 29 29 30 30 29 31 34 36 37 36 35 34 35 34 32 32 32 32 33 32 28 25 22 20 20 20 20 20 21
15 15 16 17 16 13 9 9 13 14 10 5 3 3 5 8 11 13 13 12 12 13 15 16 18 19 19 20 24 27 27 25 25 26 29 30 32 33 33 32 31 29 26 22 20 20 20 21 23 23 23 24 23 20 20 21 23 25 25 25 25 26 26 27 27 29 32 34 34 33 35 36 35 33 32 31 31 32 33 32 32 30 25 22 23 23 23 24
Wind_Direction
269 269 269 269 269 270 271 273 274 275 275 275 274 274 274 274 274 275 275 276 278 279 281 283 285 286 286 286 286 285 285 284 283 281 279 279 278 276 273 272 270 266 262 258 253 247 243 241 239 239 240 240 240 239 239 238 238 240 240 242 242 239 240 212 182 149 125 266 245 234 241 249 257 257 257 262 264 260 259 260 253 252 260 257 246 251 254 251
269 269 269 268 269 269 270 272 273 274 274 274 274 275 275 275 276 276 276 277 278 279 281 283 284 285 286 286 285 284 284 283 282 280 278 278 276 274 272 270 269 265 261 256 251 247 242 239 238 238 238 237 237 236 235 235 235 239 239 239 238 236 216 177 177 160 143 246 252 243 243 244 251 256 258 265 270 265 262 260 250 245 248 249 244 246 252 252
268 268 268 268 268 269 270 271 272 273 273 274 274 275 276 276 277 277 277 277 278 279 280 282 284 285 285 285 284 283 283 282 281 278 277 277 275 274 273 269 266 263 259 254 249 245 241 239 238 237 236 235 234 234 233 233 234 236 237 236 233 224 183 170 182 171 161 237 246 246 248 246 247 249 253 259 264 263 259 254 248 245 242 237 236 242 249 250
266 266 266 266 267 267 268 269 270 271 272 273 273 275 276 277 277 278 278 278 278 279 280 282 283 284 285 284 283 281 281 281 278 274 275 276 274 273 272 268 263 259 256 252 249 244 241 238 237 235 234 233 232 232 232 232 233 234 237 235 226 206 180 174 175 166 179 242 239 239 246 249 248 248 250 253 255 251 247 246 246 247 243 238 236 242 248 249
264 264 264 264 265 265 266 267 268 270 270 272 273 274 275 276 277 278 278 278 279 279 280 281 283 284 284 283 282 280 280 278 274 269 269 271 271 270 268 265 260 256 253 250 247 244 240 237 235 234 232 232 230 231 231 231 232 232 234 231 219 197 182 182 184 179 191 232 236 230 234 242 244 245 250 256 258 248 242 243 245 247 245 244 242 243 245 247
264 264 263 263 263 263 264 265 266 267 269 270 271 272 274 275 276 277 278 279 279 280 281 281 282 283 283 283 281 279 278 274 269 262 262 267 268 266 263 261 257 253 252 248 245 242 239 237 234 233 231 230 230 230 229 229 230 230 229 227 217 194 184 190 199 199 200 221 234 229 229 235 240 243 243 251 264 255 244 243 244 243 242 244 246 243 241 243
264 264 263 263 262 262 262 263 264 265 266 268 269 271 273 274 276 277 278 279 279 280 281 281 282 283 283 283 280 277 275 270 266 259 258 260 260 261 261 257 253 251 250 247 245 242 238 236 234 232 230 229 229 229 227 227 229 229 226 223 214 193 188 194 201 209 213 218 227 228 229 232 238 245 243 247 266 261 247 240 242 241 239 242 243 240 238 240
265 264 263 262 261 260 260 260 261 262 263 265 266 268 270 273 275 276 278 278 279 280 280 281 282 282 283 282 278 274 271 267 263 259 257 255 255 259 258 254 251 249 249 246 244 242 238 236 234 232 230 229 229 229 228 227 228 228 226 221 212 197 192 196 203 214 224 229 231 231 233 235 238 246 248 250 261 258 246 237 237 237 238 238 239 239 238 239
266 265 264 262 260 259 258 258 259 260 261 261 262 264 267 270 273 275 276 277 279 279 280 281 281 281 282 280 277 272 267 263 259 256 257 256 254 253 253 253 250 248 249 247 244 241 239 237 235 233 231 229 228 229 228 228 228 228 228 222 214 204 200 203 210 216 226 241 245 239 236 238 241 244 246 251 254 249 244 239 234 231 236 238 235 236 235 237
267 266 265 263 261 259 258 257 257 257 258 258 259 261 263 266 269 272 274 276 278 279 280 280 281 282 281 279 276 269 265 260 255 254 256 257 254 250 250 250 248 248 248 248 246 241 239 237 235 233 232 231 229 230 230 229 229 228 228 224 214 208 205 208 215 219 222 236 245 242 232 229 238 242 239 242 244 242 246 247 240 232 235 239 238 238 238 241
268 267 265 263 261 259 258 257 256 256 256 257 257 258 260 263 266 269 272 274 276 278 279 280 281 282 280 278 272 265 265 262 255 252 253 254 255 251 248 248 248 248 246 247 248 243 240 238 236 235 232 232 232 233 233 233 233 231 230 226 216 210 209 209 215 221 224 230 241 245 240 229 233 238 232 232 235 238 248 250 244 238 233 238 244 245 244 246
268 267 265 263 262 260 258 257 256 255 255 255 256 256 257 260 263 266 269 272 275 277 278 280 281 282 280 275 268 264 265 262 255 248 247 251 254 253 247 245 248 248 246 246 247 245 242 239 238 237 235 235 233 233 233 233 235 236 237 234 225 217 214 214 216 222 227 235 242 246 248 241 235 235 229 229 234 236 245 250 246 240 234 233 243 248 247 248
268 267 265 264 262 260 258 257 256 255 254 254 254 254 255 257 260 263 267 270 273 275 277 279 281 282 280 273 266 264 261 259 254 247 245 246 248 253 250 245 247 250 248 245 246 245 242 240 239 238 238 237 236 236 235 234 234 235 238 239 235 229 223 222 223 225 231 240 247 249 250 247 241 240 232 228 235 235 244 252 249 242 241 234 238 246 248 249
269 267 265 263 262 260 259 258 256 255 254 253 253 253 253 254 256 259 263 266 270 273 276 279 280 282 281 272 266 263 258 254 251 247 246 244 243 247 251 248 246 250 250 245 245 245 243 242 240 239 240 239 239 240 240 240 238 236 238 238 239 237 232 230 229 231 236 242 248 251 252 250 244 240 237 229 231 232 241 253 255 250 251 243 236 243 247 248
270 268 266 264 262 260 259 258 257 255 254 253 252 252 252 253 254 256 259 262 266 269 273 278 280 283 281 273 267 261 255 252 250 246 245 246 246 245 248 249 246 248 250 248 245 243 244 244 241 240 241 242 241 240 241 243 243 242 241 241 242 242 239 236 232 233 237 243 249 252 252 252 243 235 239 230 228 231 237 252 258 252 252 249 236 237 247 247
270 269 268 266 263 261 259 257 256 256 255 254 252 251 251 251 252 253 255 259 262 266 270 275 279 283 281 274 267 263 258 254 252 247 243 246 248 245 246 248 247 246 247 249 246 243 244 244 243 241 241 242 241 241 242 242 243 243 242 244 246 246 245 242 235 234 237 241 245 247 249 252 246 234 234 225 222 226 233 254 258 251 253 256 244 234 244 250
271 270 269 267 265 263 261 258 256 255 255 254 253 252 250 250 251 252 253 255 259 262 267 271 276 281 283 279 269 265 258 253 251 248 243 243 245 244 244 246 247 246 245 247 246 244 244 244 244 242 242 242 241 243 242 241 244 247 245 243 243 246 248 242 235 235 236 238 242 243 244 249 249 226 204 208 216 223 237 260 262 253 256 260 256 239 236 247
272 271 270 269 267 265 263 261 258 256 255 254 253 252 251 249 249 250 252 253 256 259 263 267 272 276 279 278 268 261 254 250 249 247 242 239 241 243 243 244 246 246 246 246 246 245 244 245 245 243 242 242 242 244 244 246 249 247 238 224 222 232 238 239 235 230 233 237 239 244 245 247 244 216 200 201 208 222 241 260 262 255 254 257 257 246 236 242
274 273 271 270 268 266 265 263 261 259 257 255 254 253 252 250 249 249 251 253 255 257 259 263 266 269 271 272 267 260 256 252 245 242 240 238 240 243 244 245 245 246 246 245 246 245 244 244 245 245 245 244 245 245 247 247 226 218 222 214 216 224 222 226 218 210 226 243 240 254 266 264 249 214 203 197 202 220 233 245 254 256 255 258 260 253 238 238
276 275 273 271 269 268 266 264 263 261 259 257 255 254 253 251 249 248 249 251 253 253 255 259 260 260 266 270 269 266 259 252 245 239 236 236 240 242 243 245 245 245 246 245 245 245 243 244 245 247 247 244 244 243 244 232 204 209 220 215 216 224 212 174 169 179 234 257 255 262 271 276 276 228 201 199 212 225 229 230 237 250 258 264 268 262 237 227
277 275 274 272 271 270 268 266 264 262 261 259 257 255 254 252 250 249 247 247 250 252 254 257 256 253 260 264 264 263 261 254 249 243 234 232 238 242 242 244 245 245 245 242 243 244 243 244 246 246 244 240 239 238 231 214 205 217 225 217 209 210 173 149 152 183 254 254 256 257 260 262 269 251 208 209 222 223 225 229 234 244 254 260 264 261 239 229
277 275 274 273 273 272 271 269 266 264 262 260 258 256 254 252 251 250 248 245 246 252 253 255 256 251 250 257 259 260 262 254 244 245 240 231 234 243 241 241 244 242 241 240 241 244 245 244 242 239 238 238 236 232 224 212 211 223 233 223 198 157 138 144 179 261 247 237 234 238 250 248 252 255 220 212 217 212 215 227 240 249 255 259 260 258 252 254
278 277 276 274 273 272 272 271 269 266 263 261 259 257 255 253 252 250 249 246 243 248 253 252 253 251 246 252 258 257 259 254 239 240 243 236 234 240 239 238 241 239 239 240 241 242 242 238 233 231 233 234 235 232 226 221 221 229 236 220 182 149 137 135 203 230 228 222 212 216 229 236 244 248 221 213 213 212 213 220 235 246 251 257 260 261 264 270
279 278 277 276 274 272 272 272 271 268 264 262 260 258 256 254 253 251 250 249 243 244 252 251 248 252 250 248 253 255 256 254 246 242 241 239 240 240 239 239 240 239 239 239 239 236 233 231 228 228 230 231 235 235 228 228 231 231 227 209 178 158 154 156 173 186 210 220 218 222 229 240 246 243 233 230 222 219 223 227 235 241 244 251 257 261 267 274
278 278 277 277 275 274 274 272 271 268 266 264 262 261 260 257 256 254 252 251 245 238 250 254 250 251 252 250 253 254 253 251 249 249 240 235 241 242 240 239 238 238 236 236 236 230 226 230 231 227 228 230 233 234 230 229 228 219 214 202 179 168 172 178 189 191 205 224 231 234 236 244 248 244 246 244 227 219 225 232 238 241 243 246 250 256 266 276
277 276 276 275 275 276 275 273 271 268 265 265 265 266 264 259 256 254 251 250 247 241 247 253 253 252 255 256 255 251 249 246 243 247 242 234 240 242 241 239 236 236 233 231 231 228 226 231 235 230 228 231 232 234 231 226 224 214 209 201 185 179 181 188 204 196 192 221 236 239 239 238 240 241 244 241 224 218 223 231 239 244 244 245 248 254 266 274
277 276 275 274 274 275 274 273 271 268 266 265 266 265 261 257 254 252 251 250 251 246 243 248 251 251 250 249 249 247 245 239 237 243 243 238 241 241 241 239 235 233 230 230 228 225 225 230 233 231 231 236 237 238 229 222 222 213 208 205 197 195 192 191 205 200 190 211 229 236 236 234 237 236 231 223 216 219 224 230 240 247 249 250 254 260 268 271
277 276 275 274 273 273 272 271 270 269 268 267 264 261 260 259 256 253 251 250 251 249 245 249 250 246 246 246 243 242 244 241 239 246 244 237 239 238 237 238 235 230 226 230 232 225 220 225 232 234 236 242 245 244 230 223 220 208 207 209 204 205 201 198 206 208 205 214 226 236 239 239 242 231 210 205 212 223 231 235 242 250 252 254 259 264 268 267
277 276 275 275 273 272 271 270 269 267 267 267 263 259 259 258 255 252 249 247 250 251 249 251 248 241 244 249 249 247 251 251 246 246 243 236 237 237 234 235 234 230 226 226 228 225 219 224 235 241 242 242 243 241 232 226 219 209 212 212 208 207 202 201 207 212 216 222 228 236 237 235 233 222 209 207 214 225 235 239 243 246 251 257 260 262 262 263
277 277 276 276 275 273 271 270 269 266 265 264 262 259 257 256 255 252 249 246 246 248 247 250 252 247 247 251 253 248 251 256 250 247 244 235 234 235 231 229 229 229 230 227 224 224 225 227 230 238 241 235 230 230 229 225 217 212 216 217 216 212 205 204 209 212 220 230 236 235 233 238 233 220 217 219 223 229 237 242 241 242 250 258 256 252 252 255
278 278 277 277 276 274 273 272 270 268 265 262 261 259 257 255 253 249 247 246 246 251 254 259 262 256 254 256 253 244 245 249 248 249 247 236 232 233 230 228 228 227 228 228 224 220 223 229 228 233 240 236 226 228 228 222 211 210 215 215 215 214 213 213 212 215 223 231 238 235 233 242 239 222 222 229 232 236 242 243 240 239 245 252 250 246 247 250
280 279 278 278 277 275 272 271 270 268 265 263 260 258 256 254 251 249 249 246 243 244 248 259 268 260 255 253 250 243 239 239 241 248 252 245 233 233 234 233 233 232 231 232 231 224 221 230 234 238 243 243 234 232 232 227 215 211 217 218 215 212 215 219 216 218 224 230 237 239 237 239 235 225 223 227 232 237 241 242 244 247 251 262 261 252 250 253
282 282 281 280 280 278 275 273 271 268 266 263 261 258 256 253 251 251 251 246 235 229 233 234 255 263 257 250 247 243 236 234 233 240 251 251 237 229 230 232 233 233 232 234 238 237 230 232 238 243 242 236 235 234 234 236 230 224 225 224 219 216 216 216 219 224 228 232 236 233 232 234 232 229 227 228 234 239 242 246 254 260 264 272 266 254 252 254
286 285 284 284 283 282 281 278 274 271 268 265 262 259 255 254 254 252 250 243 223 218 229 218 203 232 249 246 244 243 238 234 229 230 243 248 238 228 224 225 230 232 229 230 234 238 236 233 235 242 240 230 233 239 237 236 232 230 238 235 223 219 218 215 216 223 230 234 231 218 224 234 233 234 236 238 241 244 246 250 255 260 263 261 256 256 256 250
290 288 287 285 284 283 282 280 277 273 269 267 263 260 258 257 257 252 248 241 216 203 213 214 202 208 232 238 237 239 234 232 228 225 236 243 237 231 227 221 225 231 229 228 230 233 237 237 233 238 242 234 232 236 235 231 223 218 228 236 228 221 220 221 221 220 225 231 229 221 226 234 235 237 241 243 243 243 245 247 251 255 254 249 253 265 264 253
292 292 290 288 287 285 281 279 277 273 269 267 264 262 262 261 257 251 244 236 216 200 202 212 211 209 226 235 232 232 228 227 226 220 229 242 241 234 232 224 222 229 231 231 232 232 236 240 239 238 240 239 234 229 226 228 225 220 220 227 231 226 222 229 233 230 227 227 227 227 231 238 242 244 247 248 247 246 247 251 256 258 253 249 258 271 271 263
297 297 296 295 293 290 286 282 279 275 271 267 265 263 263 259 255 250 243 234 221 207 203 209 212 212 229 239 230 226 226 228 229 221 222 237 240 231 228 225 221 223 227 228 231 233 235 237 237 235 234 236 235 228 221 222 224 224 223 223 229 230 225 227 233 234 233 231 228 229 233 239 241 242 244 248 249 247 250 255 261 264 261 260 264 269 269 267
304 304 303 301 298 295 292 287 282 277 273 268 266 263 260 256 252 246 241 233 224 213 207 206 205 203 218 236 230 224 227 231 234 228 222 231 238 232 226 224 222 222 222 221 223 229 233 234 234 232 229 230 229 223 217 218 221 219 218 221 225 229 231 230 233 237 238 238 234 231 236 240 241 242 242 241 241 242 247 253 260 264 264 262 261 262 264 264
312 312 311 307 303 299 294 288 282 277 273 268 264 260 255 251 246 240 235 231 225 219 212 208 201 197 205 218 221 222 226 230 236 237 230 231 235 234 230 227 223 223 224 220 218 223 228 228 229 230 228 227 225 216 207 212 221 219 216 222 225 226 232 233 235 238 238 239 236 231 235 239 242 246 246 241 239 241 246 251 254 256 256 257 256 257 258 259
317 317 314 311 309 305 298 290 282 275 269 264 260 258 253 248 244 238 231 225 220 220 218 209 198 198 204 207 208 214 218 223 234 241 239 236 236 236 234 231 227 225 225 224 222 223 226 225 225 226 226 228 225 211 198 202 213 215 215 224 227 227 232 235 236 239 239 239 237 230 233 238 240 245 249 247 241 238 239 240 245 253 257 260 259 260 262 262
321 320 318 316 316 313 306 297 287 277 268 261 256 253 249 244 240 235 229 222 214 215 219 212 202 203 207 203 201 202 200 210 238 246 243 241 239 239 238 234 232 227 224 228 226 223 225 225 224 223 222 226 227 215 201 200 208 212 212 219 225 226 231 235 237 240 241 241 237 230 231 237 239 242 249 251 244 240 240 239 246 259 264 265 265 267 270 269
323 325 323 322 324 323 317 308 297 287 279 267 256 248 244 241 237 231 226 223 216 210 215 217 212 211 209 204 202 199 188 198 239 244 242 242 240 242 241 237 235 231 227 229 226 221 224 227 225 223 220 220 224 222 211 203 208 216 215 217 221 224 228 233 235 237 240 240 237 232 231 237 242 246 251 253 249 244 245 248 255 261 264 263 263 265 268 268
326 330 329 325 327 329 325 315 303 296 289 274 258 247 241 238 237 234 225 216 209 204 208 216 216 215 211 205 201 198 192 201 231 235 235 238 239 241 242 236 233 233 231 230 227 223 226 231 231 227 221 217 220 223 219 210 208 215 219 220 219 220 224 227 229 233 237 236 231 230 233 238 243 246 248 253 256 251 252 260 265 265 261 256 252 254 259 261
332 336 333 323 323 328 329 323 311 301 293 277 258 246 239 232 230 231 217 199 196 201 205 212 217 215 210 204 198 194 196 204 222 231 232 236 240 240 240 237 234 234 233 232 232 230 229 233 235 230 222 217 218 223 225 220 214 214 218 219 218 218 222 225 226 229 232 231 228 229 235 240 244 246 245 249 257 261 263 267 270 268 262 256 253 253 252 249
338 340 335 323 320 327 333 332 325 313 300 288 268 246 237 228 221 220 211 201 204 208 206 210 219 217 209 204 199 192 194 199 205 222 231 233 236 234 233 238 239 236 234 233 234 232 230 234 235 228 219 216 217 222 227 227 227 226 223 220 219 220 222 224 226 227 228 231 234 235 238 242 246 248 248 249 255 261 264 266 269 270 265 263 266 265 259 252
345 345 340 330 328 335 339 337 335 329 312 299 281 246 230 222 218 218 217 217 221 220 214 214 219 218 211 208 205 197 194 198 197 209 225 227 228 226 224 231 235 234 233 232 232 233 234 237 233 224 215 214 218 224 228 229 232 236 232 224 221 223 224 225 229 231 232 234 236 237 238 241 245 249 251 252 254 255 254 256 261 263 264 270 274 271 264 262
352 352 346 335 334 342 345 342 340 339 330 312 294 238 220 217 217 218 220 225 229 229 225 223 223 221 215 213 213 207 200 199 201 207 216 218 221 225 227 232 237 237 237 237 236 236 238 239 233 225 219 222 227 229 230 230 232 237 238 231 224 223 225 228 230 234 237 238 239 239 239 240 242 245 249 250 250 249 249 253 258 259 261 268 272 268 260 260
356 357 352 339 337 346 349 348 345 343 341 326 298 238 213 210 212 216 218 221 227 230 229 225 223 222 218 215 216 213 207 205 208 212 214 216 219 222 226 233 237 238 238 239 239 237 238 240 238 233 227 229 236 236 232 230 232 236 239 239 234 231 232 233 234 237 240 240 240 241 242 243 243 243 245 246 248 251 252 255 257 257 257 263 267 266 262 260
357 360 357 346 340 345 350 354 352 342 338 339 315 243 214 205 205 213 220 225 228 229 225 221 220 222 221 219 218 217 215 214 217 219 219 221 224 222 221 225 229 233 232 232 235 238 238 238 240 239 233 229 235 239 235 231 233 235 238 240 240 241 240 237 236 238 240 242 241 242 244 248 247 246 246 245 247 251 253 255 257 255 255 261 264 262 259 257
359 1 1 358 352 349 351 360 3 352 332 339 336 271 224 217 214 217 227 234 233 227 222 221 222 225 225 223 222 223 222 222 224 227 228 228 230 229 226 223 226 233 234 231 233 236 235 234 235 238 238 233 234 238 238 238 239 240 241 241 242 244 246 242 237 236 238 241 243 244 247 250 249 248 248 247 248 250 253 255 254 248 252 260 260 256 253 251
3 1 1 7 8 2 356 4 12 11 351 323 320 289 227 215 216 217 225 240 241 233 227 226 228 229 229 228 228 228 228 227 228 231 233 234 235 236 237 236 236 240 242 240 240 239 236 236 236 236 235 231 232 238 239 238 239 240 241 242 242 245 247 247 244 241 240 241 241 241 247 251 250 250 252 253 252 252 254 256 254 253 258 260 254 249 246 243
6 3 2 10 15 13 11 8 15 21 17 355 328 279 231 220 224 228 235 248 248 236 230 229 229 229 229 232 232 230 230 231 229 229 231 235 237 239 242 243 245 247 246 244 241 238 236 236 234 233 232 230 231 238 239 236 238 241 243 244 244 246 248 247 247 247 247 247 244 242 245 250 252 253 254 253 252 252 253 254 255 257 259 257 252 251 249 247